GUNLAK-WX Weather Reports


Display with metric or nautical units.
time (UTC)temp
F
wind
direction
speed
MPH
gust
MPH
rain 1hr
in
rain 24hr
in
rain mn
in
humidity
%
barometer
mb
20260901094614 69 165 5.0 0.0 0.00 0.00 0.00 87 985.8
20260901093119 70 162 4.0 0.0 0.00 0.00 0.00 88 986.2
20260901091620 69 170 4.0 0.0 0.00 0.00 0.00 88 986.1
20260901090119 69 175 4.0 0.0 0.00 0.00 0.00 88 986.1
20260901084613 69 185 4.0 0.0 0.00 0.00 0.00 88 985.9
20260901083118 70 185 4.0 0.0 0.00 0.00 0.00 86 985.4
20260901081619 70 200 5.0 0.0 0.00 0.00 0.00 86 985.4
20260901080115 70 191 5.0 0.0 0.00 0.00 0.00 85 985.9
20260901074619 70 187 5.0 0.0 0.00 0.00 0.00 86 985.6
20260901073118 70 180 4.0 0.0 0.00 0.00 0.00 86 985.6
20260901071613 71 185 5.0 0.0 0.00 0.00 0.00 86 985.6
20260901070113 71 180 5.0 0.0 0.00 0.00 0.00 86 985.6
20260901064620 71 185 5.0 0.0 0.00 0.00 0.00 87 985.9
20260901063107 71 203 4.0 0.0 0.00 0.00 0.00 87 985.9
20260901061614 71 198 4.0 0.0 0.00 0.00 0.00 87 985.9
20260901060119 71 204 5.0 0.0 0.00 0.00 0.00 87 985.9
20260901054618 72 199 5.0 0.0 0.00 0.00 0.00 86 986.1
20260901053119 72 185 5.0 0.0 0.00 0.00 0.00 90 985.8
20260901051613 72 193 4.0 0.0 0.00 0.00 0.00 90 985.8
20260901050124 72 204 4.0 0.0 0.00 0.00 0.00 90 985.8
20260901044618 72 207 4.0 0.0 0.00 0.00 0.00 87 986.0
20260901043113 72 197 4.0 0.0 0.00 0.00 0.00 87 985.8
20260901041617 72 182 5.0 0.0 0.00 0.00 0.00 87 985.8
20260901040122 72 193 3.0 0.0 0.00 0.00 0.00 87 985.8
20260901034617 73 195 4.0 0.0 0.00 0.00 0.00 84 985.7
20260901033117 73 205 5.0 0.0 0.00 0.00 0.00 85 986.0
20260901031617 74 211 7.0 0.0 0.00 0.00 0.00 85 986.0
20260901030117 74 217 6.0 0.0 0.00 0.00 0.00 85 986.0
20260901024617 74 201 7.0 0.0 0.00 0.00 0.00 82 987.0
20260901023117 74 205 6.0 0.0 0.00 0.00 0.00 84 986.6
20260901021615 73 195 6.0 0.0 0.00 0.00 0.00 84 986.5
20260901020122 73 204 6.0 0.0 0.00 0.00 0.00 84 986.5
20260901014616 73 208 5.0 0.0 0.00 0.00 0.00 84 986.5
20260901013114 74 196 6.0 0.0 0.00 0.00 0.00 84 986.5
20260901011616 73 213 4.0 0.0 0.00 0.00 0.00 84 986.5
20260901010119 74 199 5.0 0.0 0.00 0.00 0.00 84 986.5
20260901004616 74 197 6.0 0.0 0.00 0.00 0.00 80 986.4
20260901003115 75 209 4.0 0.0 0.00 0.00 0.00 77 986.1
20260901001616 76 199 5.0 0.0 0.00 0.00 0.00 77 986.1
20260901000114 77 220 5.0 0.0 0.00 0.00 0.00 77 986.1
20260831234618 77 214 6.0 0.0 0.00 0.01 0.01 71 985.8
20260831233117 78 213 5.0 0.0 0.00 0.01 0.01 64 985.8
20260831231618 79 206 9.0 0.0 0.00 0.01 0.01 64 985.9
20260831230120 80 202 10.0 0.0 0.00 0.01 0.01 64 985.9
20260831224617 82 201 11.0 0.0 0.00 0.01 0.01 61 986.4
20260831223119 82 209 10.0 0.0 0.00 0.01 0.01 56 986.8
20260831221614 83 211 12.0 0.0 0.00 0.01 0.01 56 986.8
20260831220118 83 209 12.0 0.0 0.00 0.01 0.01 56 986.8
20260831214617 84 204 12.0 0.0 0.00 0.01 0.01 59 987.3
20260831213114 84 206 11.0 0.0 0.00 0.01 0.01 54 987.0
20260831211616 86 203 13.0 0.0 0.00 0.01 0.01 54 987.1
20260831210117 86 206 12.0 0.0 0.00 0.01 0.01 54 987.1
20260831204614 86 200 12.0 0.0 0.00 0.01 0.01 58 988.2
20260831203115 86 202 12.0 0.0 0.00 0.01 0.01 79 987.8
20260831201616 80 183 7.0 0.0 0.04 0.05 0.05 79 987.5
20260831200117 77 178 6.0 0.0 0.04 0.05 0.05 73 988.2
20260831194617 78 219 10.0 0.0 0.00 0.01 0.01 63 988.4
20260831193116 78 232 7.0 0.0 0.00 0.01 0.01 63 988.4
20260831191616 83 180 8.0 0.0 0.00 0.01 0.01 63 988.4
20260831190118 84 193 9.0 0.0 0.00 0.01 0.01 59 987.7
20260831184614 83 200 9.0 0.0 0.00 0.00 0.00 66 988.3
20260831183115 85 184 11.0 0.0 0.00 0.00 0.00 66 988.4
20260831181615 84 193 11.0 0.0 0.00 0.00 0.00 66 988.4
20260831180116 84 192 10.0 0.0 0.00 0.00 0.00 66 988.4
20260831174615 83 200 10.0 0.0 0.00 0.00 0.00 63 989.1
20260831173115 84 205 11.0 0.0 0.00 0.00 0.00 61 988.0
20260831171615 83 202 11.0 0.0 0.00 0.00 0.00 61 988.0
20260831170116 82 201 11.0 0.0 0.00 0.00 0.00 61 988.0
20260831164615 81 197 9.0 0.0 0.00 0.00 0.00 71 989.8
20260831163315 0 0 0.0 0.0 0.00 0.00 0.00 100
20260831161944 0 0 0.0 0.0 0.00 0.00 0.00 100
20260831160115 80 211 12.0 0.0 0.00 0.00 0.00 61 988.4
20260831154614 79 211 12.0 0.0 0.00 0.00 0.00 76 989.9
20260831153114 78 205 10.0 0.0 0.00 0.00 0.00 72 989.2
20260831151614 80 237 11.0 0.0 0.00 0.00 0.00 72 989.3
20260831150115 78 232 9.0 0.0 0.00 0.00 0.00 72 989.3
20260831144618 77 226 6.0 0.0 0.00 0.00 0.00 78 988.9
20260831143115 76 224 6.0 0.0 0.00 0.00 0.00 72 988.8
20260831141614 74 218 8.0 0.0 0.00 0.00 0.00 72 988.7
20260831140114 74 234 9.0 0.0 0.00 0.00 0.00 78 989.4
20260831134613 76 210 8.0 0.0 0.00 0.00 0.00 76 988.7
20260831133623 76 206 7.0 0.0 0.00 0.00 0.00 76 988.7
20260831131615 73 208 6.0 0.0 0.00 0.00 0.00 76 988.7
20260831130119 74 201 6.0 0.0 0.00 0.00 0.00 76 988.7
20260831124615 74 197 5.0 0.0 0.00 0.00 0.00 85 988.0
20260831123119 72 178 5.0 0.0 0.00 0.00 0.00 85 988.0
20260831121622 70 160 4.0 0.0 0.00 0.00 0.00 85 988.0
20260831120123 70 177 4.0 0.0 0.00 0.00 0.00 85 988.0
20260831114621 69 182 5.0 0.0 0.00 0.00 0.00 85 988.8
20260831113118 69 154 7.0 0.0 0.00 0.00 0.00 85 988.8
20260831111621 69 176 6.0 0.0 0.00 0.00 0.00 85 988.8
20260831110119 69 174 6.0 0.0 0.00 0.00 0.00 85 988.8
20260831104615 69 175 5.0 0.0 0.00 0.00 0.00 85 989.6
20260831103118 69 175 5.0 0.0 0.00 0.00 0.00 86 988.8
20260831101620 69 175 5.0 0.0 0.00 0.00 0.00 86 988.8
20260831100119 69 178 5.0 0.0 0.00 0.00 0.00 86 988.8